REH520 KSTS-KMFR

Flight info

Callsign REH520
Flight time 0h 55m
Altitude 28000
Route CHRRO1 RBL
Aircraft BE20/L-SBGRY/S

Departure

Time 2026-04-20 08:34
Airport Charles M. Schulz Sonoma County Airport (KSTS)

Arrival

Time 2026-04-20 09:30
Airport Rogue Valley International-Medford Airport (KMFR)
Time Latitude Longitude Altitude Speed Heading
2026-04-20 08:34 38.63464 -122.63898 12469 ft 230 kts 350°
2026-04-20 08:34 38.65064 -122.64073 12768 ft 232 kts 350°
2026-04-20 08:35 38.66671 -122.64257 13070 ft 232 kts 350°
2026-04-20 08:35 38.68285 -122.64438 13371 ft 233 kts 351°
2026-04-20 08:35 38.69904 -122.64611 13673 ft 233 kts 351°
2026-04-20 08:35 38.71525 -122.64786 13975 ft 235 kts 351°
2026-04-20 08:36 38.73151 -122.64783 14270 ft 240 kts
2026-04-20 08:36 38.74764 -122.64139 14573 ft 245 kts 24°
2026-04-20 08:36 38.76134 -122.62831 14877 ft 248 kts 45°
2026-04-20 08:36 38.77005 -122.60935 15182 ft 249 kts 72°
2026-04-20 08:37 38.77559 -122.58829 15493 ft 249 kts 69°
2026-04-20 08:37 38.78258 -122.56795 15795 ft 250 kts 65°
2026-04-20 08:37 38.79002 -122.54767 16096 ft 251 kts 65°
2026-04-20 08:37 38.79735 -122.52734 16397 ft 252 kts 65°
2026-04-20 08:38 38.80491 -122.50708 16695 ft 252 kts 59°
2026-04-20 08:38 38.81584 -122.48999 16992 ft 251 kts 39°
2026-04-20 08:38 38.83054 -122.47845 17292 ft 247 kts 17°
2026-04-20 08:38 38.84724 -122.47471 17599 ft 242 kts 359°
2026-04-20 08:39 38.86401 -122.47235 17903 ft 243 kts
2026-04-20 08:39 38.88083 -122.46879 18166 ft 246 kts
2026-04-20 08:39 38.89783 -122.46500 18398 ft 249 kts
2026-04-20 08:39 38.91493 -122.46130 18625 ft 251 kts
2026-04-20 08:40 38.93222 -122.45771 18882 ft 251 kts
2026-04-20 08:40 38.94916 -122.45428 19192 ft 249 kts
2026-04-20 08:40 38.96622 -122.45088 19513 ft 247 kts
2026-04-20 08:40 38.98321 -122.44752 19836 ft 246 kts
2026-04-20 08:41 39.00016 -122.44419 20159 ft 245 kts
2026-04-20 08:41 39.01701 -122.44089 20482 ft 245 kts
2026-04-20 08:41 39.02816 -122.43870 20677 ft 245 kts
2026-04-20 08:41 39.04508 -122.43538 20956 ft 247 kts
2026-04-20 08:42 39.06217 -122.43206 21234 ft 248 kts
2026-04-20 08:42 39.07931 -122.42888 21509 ft 249 kts
2026-04-20 08:42 39.09655 -122.42571 21785 ft 251 kts
2026-04-20 08:42 39.11381 -122.42254 22059 ft 252 kts
2026-04-20 08:43 39.13127 -122.41931 22336 ft 253 kts
2026-04-20 08:43 39.14877 -122.41607 22611 ft 254 kts
2026-04-20 08:43 39.16631 -122.41281 22887 ft 255 kts
2026-04-20 08:43 39.18391 -122.40953 23162 ft 256 kts
2026-04-20 08:44 39.20128 -122.40629 23432 ft 257 kts
2026-04-20 08:44 39.21900 -122.40299 23707 ft 258 kts
2026-04-20 08:44 39.23683 -122.39966 23982 ft 259 kts
2026-04-20 08:44 39.25472 -122.39632 24257 ft 260 kts
2026-04-20 08:45 39.27259 -122.39298 24532 ft 260 kts
2026-04-20 08:45 39.29055 -122.38962 24808 ft 261 kts
2026-04-20 08:45 39.30858 -122.38624 25084 ft 261 kts
2026-04-20 08:45 39.32657 -122.38287 25359 ft 261 kts
2026-04-20 08:46 39.34459 -122.37949 25635 ft 261 kts
2026-04-20 08:46 39.36238 -122.37616 25906 ft 261 kts
2026-04-20 08:46 39.38041 -122.37278 26182 ft 261 kts
2026-04-20 08:46 39.39843 -122.36940 26457 ft 261 kts
2026-04-20 08:47 39.41642 -122.36602 26732 ft 261 kts
2026-04-20 08:47 39.43437 -122.36265 27006 ft 261 kts
2026-04-20 08:47 39.45231 -122.35928 27281 ft 260 kts
2026-04-20 08:47 39.47024 -122.35591 27556 ft 260 kts
2026-04-20 08:48 39.48800 -122.35258 27774 ft 262 kts
2026-04-20 08:48 39.50651 -122.34911 27894 ft 268 kts
2026-04-20 08:48 39.52493 -122.34566 27934 ft 275 kts
2026-04-20 08:48 39.54412 -122.34204 27932 ft 283 kts
2026-04-20 08:49 39.56379 -122.33831 27927 ft 289 kts
2026-04-20 08:49 39.58383 -122.33450 27924 ft 293 kts
2026-04-20 08:49 39.60415 -122.33065 27923 ft 297 kts
2026-04-20 08:49 39.62468 -122.32674 27922 ft 300 kts
2026-04-20 08:50 39.64538 -122.32281 27921 ft 300 kts
2026-04-20 08:50 39.66604 -122.31888 27920 ft 299 kts
2026-04-20 08:50 39.68665 -122.31497 27920 ft 299 kts
2026-04-20 08:50 39.70730 -122.31106 27920 ft 300 kts
2026-04-20 08:51 39.72801 -122.30714 27920 ft 301 kts
2026-04-20 08:51 39.74865 -122.30322 27920 ft 301 kts
2026-04-20 08:51 39.76946 -122.29928 27919 ft 301 kts
2026-04-20 08:51 39.78994 -122.29539 27917 ft 302 kts
2026-04-20 08:52 39.81083 -122.29142 27914 ft 302 kts
2026-04-20 08:52 39.83163 -122.28746 27913 ft 303 kts
2026-04-20 08:52 39.85253 -122.28348 27912 ft 303 kts
2026-04-20 08:52 39.87343 -122.27951 27913 ft 303 kts
2026-04-20 08:53 39.89431 -122.27554 27913 ft 303 kts
2026-04-20 08:53 39.91521 -122.27156 27913 ft 304 kts
2026-04-20 08:53 39.93615 -122.26757 27914 ft 304 kts
2026-04-20 08:53 39.95684 -122.26363 27914 ft 304 kts
2026-04-20 08:54 39.97781 -122.25963 27914 ft 304 kts
2026-04-20 08:54 39.99881 -122.25562 27915 ft 304 kts
2026-04-20 08:54 40.01978 -122.25162 27915 ft 304 kts
2026-04-20 08:54 40.04075 -122.24761 27916 ft 304 kts
2026-04-20 08:55 40.06172 -122.24359 27918 ft 304 kts
2026-04-20 08:55 40.08271 -122.23958 27918 ft 304 kts
2026-04-20 08:55 40.10376 -122.23767 27918 ft 302 kts 355°
2026-04-20 08:55 40.12458 -122.24059 27920 ft 301 kts 350°
2026-04-20 08:56 40.14536 -122.24423 27920 ft 301 kts 349°
2026-04-20 08:56 40.16611 -122.24801 27919 ft 301 kts 349°
2026-04-20 08:56 40.18682 -122.25179 27919 ft 301 kts 349°
2026-04-20 08:56 40.20735 -122.25553 27918 ft 301 kts 349°
2026-04-20 08:57 40.22811 -122.25927 27917 ft 301 kts 349°
2026-04-20 08:57 40.24890 -122.26299 27915 ft 301 kts 349°
2026-04-20 08:57 40.26965 -122.26668 27912 ft 301 kts 349°
2026-04-20 08:57 40.29043 -122.27036 27908 ft 301 kts 350°
2026-04-20 08:58 40.31114 -122.27401 27904 ft 301 kts 350°
2026-04-20 08:58 40.33196 -122.27769 27899 ft 300 kts 350°
2026-04-20 08:58 40.35254 -122.28133 27893 ft 298 kts 350°
2026-04-20 08:58 40.37300 -122.28496 27888 ft 297 kts 350°
2026-04-20 08:59 40.39348 -122.28860 27883 ft 297 kts 350°
2026-04-20 08:59 40.41402 -122.29225 27879 ft 297 kts 350°
2026-04-20 08:59 40.43452 -122.29590 27875 ft 297 kts 350°
2026-04-20 08:59 40.45499 -122.29954 27873 ft 297 kts 350°
2026-04-20 09:00 40.47526 -122.30314 27871 ft 297 kts 350°
2026-04-20 09:00 40.49578 -122.30679 27870 ft 297 kts 350°
2026-04-20 09:00 40.51631 -122.31045 27869 ft 297 kts 350°
2026-04-20 09:00 40.53679 -122.31410 27796 ft 300 kts 351°
2026-04-20 09:01 40.55758 -122.31780 27567 ft 299 kts 351°
2026-04-20 09:01 40.57734 -122.32125 27402 ft 273 kts 351°
2026-04-20 09:01 40.59579 -122.32449 27152 ft 264 kts 350°
2026-04-20 09:01 40.61392 -122.32775 26875 ft 263 kts 350°
2026-04-20 09:02 40.63208 -122.33094 26578 ft 262 kts 350°
2026-04-20 09:02 40.65021 -122.33414 26279 ft 263 kts 350°
2026-04-20 09:02 40.66835 -122.33735 25980 ft 264 kts 350°
2026-04-20 09:02 40.68664 -122.34061 25681 ft 266 kts 350°
2026-04-20 09:03 40.70478 -122.34385 25386 ft 267 kts 350°
2026-04-20 09:03 40.72350 -122.34720 25083 ft 268 kts 350°
2026-04-20 09:03 40.74179 -122.35048 24788 ft 269 kts 350°
2026-04-20 09:03 40.76111 -122.35398 24394 ft 289 kts 350°
2026-04-20 09:04 40.78129 -122.35771 24066 ft 302 kts 350°
2026-04-20 09:04 40.80244 -122.36158 23762 ft 309 kts 350°
2026-04-20 09:04 40.82380 -122.36543 23463 ft 310 kts 350°
2026-04-20 09:04 40.84513 -122.36924 23162 ft 307 kts 351°
2026-04-20 09:05 40.86625 -122.37301 22861 ft 304 kts 351°
2026-04-20 09:05 40.88718 -122.37674 22560 ft 301 kts 351°
2026-04-20 09:05 40.90757 -122.38039 22263 ft 299 kts 351°
2026-04-20 09:05 40.92817 -122.38409 21962 ft 296 kts 351°
2026-04-20 09:06 40.94854 -122.38775 21662 ft 294 kts 351°
2026-04-20 09:06 40.96879 -122.39140 21361 ft 293 kts 351°
2026-04-20 09:06 40.98874 -122.39500 21064 ft 291 kts 351°
2026-04-20 09:06 41.00897 -122.39865 20760 ft 289 kts 351°
2026-04-20 09:07 41.02861 -122.40221 20464 ft 288 kts 351°
2026-04-20 09:07 41.04843 -122.40580 20163 ft 286 kts 352°
2026-04-20 09:07 41.06817 -122.40937 19857 ft 285 kts 352°
2026-04-20 09:07 41.08781 -122.41293 19535 ft 285 kts 352°
2026-04-20 09:08 41.10742 -122.41648 19210 ft 284 kts 352°
2026-04-20 09:08 41.12700 -122.42002 18885 ft 283 kts 352°
2026-04-20 09:08 41.14656 -122.42357 18559 ft 282 kts 352°
2026-04-20 09:08 41.16603 -122.42711 18233 ft 281 kts 352°
2026-04-20 09:09 41.18513 -122.43058 17912 ft 280 kts 352°
2026-04-20 09:09 41.20440 -122.43408 17587 ft 279 kts 352°
2026-04-20 09:09 41.22372 -122.43759 17261 ft 279 kts 352°
2026-04-20 09:09 41.24294 -122.44108 16935 ft 278 kts 352°
2026-04-20 09:10 41.26208 -122.44456 16610 ft 277 kts 352°
2026-04-20 09:10 41.28113 -122.44803 16286 ft 276 kts 352°
2026-04-20 09:10 41.30022 -122.45151 15959 ft 276 kts 352°
2026-04-20 09:10 41.31924 -122.45498 15635 ft 276 kts 352°
2026-04-20 09:11 41.33823 -122.45844 15310 ft 275 kts 352°
2026-04-20 09:11 41.35719 -122.46190 14985 ft 275 kts 352°
2026-04-20 09:11 41.37595 -122.46533 14663 ft 275 kts 352°
2026-04-20 09:11 41.39491 -122.46879 14337 ft 275 kts 352°
2026-04-20 09:12 41.41384 -122.47225 14012 ft 274 kts 352°
2026-04-20 09:12 41.43270 -122.47570 13688 ft 274 kts 352°
2026-04-20 09:12 41.45156 -122.47916 13373 ft 273 kts 352°
2026-04-20 09:12 41.47032 -122.48259 13089 ft 271 kts 352°
2026-04-20 09:13 41.48896 -122.48600 12813 ft 269 kts 352°
2026-04-20 09:13 41.50745 -122.48939 12537 ft 267 kts 352°
2026-04-20 09:13 41.52582 -122.49277 12262 ft 266 kts 352°
2026-04-20 09:13 41.54413 -122.49613 12001 ft 265 kts 352°
2026-04-20 09:14 41.56238 -122.49949 11760 ft 263 kts 352°
2026-04-20 09:14 41.58045 -122.50282 11534 ft 261 kts 352°
2026-04-20 09:14 41.59837 -122.50612 11308 ft 260 kts 352°
2026-04-20 09:14 41.61623 -122.50940 11082 ft 259 kts 352°
2026-04-20 09:15 41.63404 -122.51268 10866 ft 258 kts 352°
2026-04-20 09:15 41.65178 -122.51596 10665 ft 257 kts 352°
2026-04-20 09:15 41.66944 -122.51922 10465 ft 256 kts 352°
2026-04-20 09:15 41.68710 -122.52248 10264 ft 255 kts 352°
2026-04-20 09:16 41.70439 -122.52567 10098 ft 253 kts 352°
2026-04-20 09:16 41.72175 -122.52888 10021 ft 249 kts 352°
2026-04-20 09:16 41.73885 -122.53204 10002 ft 248 kts 352°
2026-04-20 09:16 41.75593 -122.53521 10000 ft 248 kts 352°
2026-04-20 09:17 41.77295 -122.53837 9999 ft 246 kts 352°
2026-04-20 09:17 41.78980 -122.54148 9998 ft 242 kts 352°
2026-04-20 09:17 41.80646 -122.54457 9999 ft 241 kts 352°
2026-04-20 09:17 41.82285 -122.54761 9999 ft 241 kts 352°
2026-04-20 09:18 41.83943 -122.55070 9999 ft 240 kts 352°
2026-04-20 09:18 41.85589 -122.55340 9820 ft 226 kts 354°
2026-04-20 09:18 41.87112 -122.55504 9463 ft 217 kts 356°
2026-04-20 09:18 41.88617 -122.55624 9112 ft 217 kts 356°
2026-04-20 09:19 41.90125 -122.55736 8763 ft 217 kts 356°
2026-04-20 09:19 41.91638 -122.55852 8412 ft 217 kts 356°
2026-04-20 09:19 41.93207 -122.55982 8144 ft 234 kts 356°
2026-04-20 09:19 41.94852 -122.56130 8111 ft 237 kts 355°
2026-04-20 09:20 41.96499 -122.56283 8103 ft 237 kts 355°
2026-04-20 09:20 41.98121 -122.56438 8102 ft 236 kts 355°
2026-04-20 09:20 41.99749 -122.56593 8165 ft 224 kts 355°
2026-04-20 09:20 42.01206 -122.56768 8112 ft 200 kts 351°
2026-04-20 09:21 42.02482 -122.57327 8093 ft 189 kts 333°
2026-04-20 09:21 42.03565 -122.58381 7857 ft 197 kts 319°
2026-04-20 09:21 42.04637 -122.59532 7531 ft 193 kts 321°
2026-04-20 09:21 42.05701 -122.60630 7205 ft 193 kts 322°
2026-04-20 09:22 42.06773 -122.61731 6879 ft 194 kts 322°
2026-04-20 09:22 42.07832 -122.62828 6560 ft 194 kts 322°
2026-04-20 09:22 42.08906 -122.63941 6275 ft 194 kts 322°
2026-04-20 09:22 42.09954 -122.65030 6151 ft 187 kts 322°
2026-04-20 09:23 42.10991 -122.66110 6114 ft 188 kts 322°
2026-04-20 09:23 42.12030 -122.67193 6107 ft 189 kts 322°
2026-04-20 09:23 42.13072 -122.68282 6106 ft 190 kts 322°
2026-04-20 09:23 42.14098 -122.69355 6106 ft 188 kts 322°
2026-04-20 09:24 42.15125 -122.70430 6103 ft 186 kts 321°
2026-04-20 09:24 42.16149 -122.71504 6105 ft 186 kts 321°
2026-04-20 09:24 42.17140 -122.72625 6106 ft 185 kts 317°
2026-04-20 09:24 42.18075 -122.73823 6107 ft 185 kts 315°
2026-04-20 09:25 42.19004 -122.75025 6097 ft 186 kts 315°
2026-04-20 09:25 42.19970 -122.76273 5803 ft 197 kts 315°
2026-04-20 09:25 42.20978 -122.77575 5482 ft 203 kts 315°
2026-04-20 09:25 42.22015 -122.78878 5156 ft 205 kts 319°
2026-04-20 09:26 42.23231 -122.79883 4824 ft 206 kts 338°
2026-04-20 09:26 42.24589 -122.80494 4515 ft 204 kts 340°
2026-04-20 09:26 42.25848 -122.81146 4188 ft 188 kts 338°
2026-04-20 09:26 42.27020 -122.81786 3854 ft 176 kts 337°
2026-04-20 09:27 42.28037 -122.82342 3613 ft 139 kts 337°
2026-04-20 09:27 42.28930 -122.82827 3274 ft 138 kts 337°
2026-04-20 09:27 42.29808 -122.83295 2945 ft 132 kts 338°
2026-04-20 09:27 42.30649 -122.83757 2609 ft 130 kts 335°
2026-04-20 09:28 42.31496 -122.84202 2281 ft 131 kts 337°
2026-04-20 09:28 42.32329 -122.84627 2126 ft 123 kts 340°
2026-04-20 09:28 42.33133 -122.84996 2022 ft 125 kts 340°
2026-04-20 09:28 42.33684 -122.85269 1920 ft 125 kts 336°
2026-04-20 09:29 42.34706 -122.85860 1709 ft 116 kts 336°
2026-04-20 09:29 42.35459 -122.86239 1519 ft 113 kts 339°
2026-04-20 09:29 42.35940 -122.86493 1447 ft 112 kts 335°
2026-04-20 09:29 42.36642 -122.86893 1347 ft 105 kts 336°
2026-04-20 09:30 42.37258 -122.87215 1340 ft 75 kts 341°
2026-04-20 09:30 42.37594 -122.87382 1339 ft 24 kts 343°
2026-04-20 09:30 42.37683 -122.87501 1339 ft 16 kts 283°
2026-04-20 09:30 42.37677 -122.87579 1339 ft 0 kts 258°
2026-04-20 09:32 42.37676 -122.87579 1339 ft 0 kts 258°
2026-04-20 09:32 42.37676 -122.87580 1339 ft 0 kts 258°
2026-04-20 09:35 42.37676 -122.87581 1339 ft 0 kts 258°